Regional Weather Roundup
Issued by NWS

Home | Current Version | Previous Version | Graphics & Text | Print | Product List | Glossary On
Versions: 1 2 3 4 5 6 7 8 9 10 11 12 13 14 15 16 17 18 19 20 21 22 23 24 25 26 27 28 29 30 31 32 33 34 35 36 37 38 39 40 41 42 43 44 45 46 47 48 49 50
000
ASUS43 KBIS 060710
RWRND

NORTH DAKOTA REGIONAL WEATHER ROUNDUP
NATIONAL WEATHER SERVICE BISMARCK ND
200 AM CDT MON JUL 06 2015

NOTE: "FAIR" INDICATES FEW OR NO CLOUDS BELOW 12,000 FEET WITH NO
SIGNIFICANT WEATHER AND/OR OBSTRUCTIONS TO VISIBILITY.


NDZ001>003-009>011-017-060800-
NORTHWEST NORTH DAKOTA

CITY           SKY/WX    TMP DP  RH WIND       PRES   REMARKS
WILLISTON      CLOUDY    61  51  70 N5        30.10R
MINOT          PTCLDY    57  51  80 NW10      30.02F
MINOT AFB      PTCLDY    57  57  99 NW9       30.02F
$$

NDZ018>021-031>035-040>046-060800-
SOUTHWEST NORTH DAKOTA

CITY           SKY/WX    TMP DP  RH WIND       PRES   REMARKS
BISMARCK       MOCLDY    64  56  75 N9        30.00R HAZE
DICKINSON      CLOUDY    57  52  83 NW7       30.07R
GARRISON         N/A     56  53  90 N7        30.03S
HETTINGER ARPT CLOUDY    59  52  77 N8        30.09R HAZE
$$

NDZ004>008-012>016-024-026-027-054-060800-
NORTHEAST NORTH DAKOTA

CITY           SKY/WX    TMP DP  RH WIND       PRES   REMARKS
GRAND FORKS    CLOUDY    62  59  90 N14G20    29.90S FOG
GRND FRKS AFB  PTCLDY    63  58  82 N16       29.91S HAZE
DEVILS LAKE    MOCLDY    61  52  72 N13       29.96R
$$

NDZ022-023-025-028>030-036>039-047>053-060800-
SOUTHEAST NORTH DAKOTA

CITY           SKY/WX    TMP DP  RH WIND       PRES   REMARKS
FARGO          CLOUDY    66  58  75 N9        29.88R HAZE
JAMESTOWN      CLOUDY    63  58  83 N8        29.94R HAZE
$$




USA.gov is the U.S. government's official web portal to all federal, state and local government web resources and services.